Tracking 19177 objects as of 24-May-2018
HD Live streaming from Space Station
objects crossing your sky now

NOAA 16 DEB

Track NOAA 16 DEB now!
10-day predictions


NORAD ID: 41208
Int'l Code: 2000-055DM
Perigee: 859.7 km
Apogee: 911.4 km
Inclination: 98.8 °
Period: 102.5 minutes
Semi major axis: 7256 km
RCS: Unknown
Launch date: September 21, 2000
Source: United States (US)
Launch site: AIR FORCE WESTERN TEST RANGE (AFWTR)

Note: This is SATELLITE DEBRIS
aabbcc
Your satellite tracking list
Your tracking list is empty




NASA's NSSDC Master Catalog

Two Line Element Set (TLE):
1 41208U 00055DM  18143.35962740 +.00000447 +00000-0 +30562-3 0  9992
2 41208 098.8299 202.3169 0035618 291.3612 068.3756 14.04448114124702
Source of the keplerian elements: AFSPC